STARLINK-2646, 48642

Orbit data source: Space-Track

STARLINK-2646, 48642 is a payload satellite owned by SpaceX/Seattle (US) in LEO that was launched on Wed, 26 May 2021 UTC via an FALCON 9 launch vehicle from the Air Force Eastern Test Range (AFETR). Payload-class satellites include a variety of spacecraft equipped with specific instruments for various scientific and technological missions. These include communications satellites like Starlink; space stations such as the ISS; scientific satellites like the Hubble; Earth observation satellites from companies like Planet Labs, Umbra, and HawkEye 360; GPS; miniature CubeSats for education and research; and military/defense satellites.

Loading next visibility...
Identifier
48642, 2021-044E
Orbit
LEO
Country
Flag of USUS
Related business
Manufacturer
SpaceX/Seattle
Mission
Operational Commercial Communications
Bus & Motor
STARLINK, Unknown motor
Mass
260 kg wet, ~248 kg dry
Launch date (UTC)
2021-05-26 (5 years ago)
Launch vehicle
FALCON 9
Launch site
Air Force Eastern Test Range (AFETR)
Object type
Payload
Rocket body
Debris
Shape & HBR
Box + 1 Pan, 10.1 m
Radar Cross Section
13.562 m², Large (>1 m²)

Expand to show TLE details & history
Last TLE update: 23 hours ago

TLE from 23 hours ago
0 STARLINK-2646
1 48642U 21044E   25348.80718241  .00001582  00000-0  12511-3 0  9997
2 48642  53.0548 142.6831 0001343  84.4851 275.6291 15.06385420250910
Epoch: 2025-12-14T19:22Z
TLE epoch observation values (Epoch: 2025-12-14T19:22:20.560Z)
Latitude
-0.00002°
Longitude
128.38262°
Altitude
548.044 km
Speed
7.589 km/s
True Right ascension
09h 30m 43s
True Declination
0° 00' 00"
Sunlit
Object was in full shadow at epoch
Visualization orbit readout
Latitude
Unknown
Longitude
Unknown
Altitude
Unknown
Speed
Unknown
Apparent Right ascension
Unknown
Apparent Declination
Unknown
Sunlit
N/A
Visualization observer readout
Local Sidereal Time
17:25:42
Azimuth
Unknown
Elevation
Unknown
Doppler factor
Unknown
Orbital elements
Apogee altitude
548.457 km
Perigee altitude
546.597 km
Semi-major axis
6,925.664 km
Eccentricity
0.00013
Inclination
53.0548°
RAAN
142.6831°
Arg. of periapsis
84.4851°
True anomaly
275.61378°
Mean anomaly
275.6291°
Eccentric anomaly
275.62144°
Mean motion
3.76575 °/min
Orbital period
95.6 mins
BSTAR
0.00012511
Loading maneuver chart data...
Computing Atmospheric mass density...
Loading historical data...
Loading historical data...
Loading historical data...
Loading historical data...
Loading historical data...
Loading historical data...
Loading historical data...

Documentation

Showing up to 5 results
|